[[{"header":{"parameterUnit":"m.s-1","parameterCategory":1,"la1":30.2991,"la2":30.254,"lo1":-89.0895,"lo2":-89.0444,"dy":0.0017,"dx":0.0017,"nx":28,"ny":28,"refTime":"2024-04-11T03:00:00:Z","depth":0,"parameterNumber":2,"parameterNumberName":"U-component_of_WINDS"},"data":[0,0,0,0,0,0,0,0,0,0,0,0,0,0,0,0,0,0,0,0,0,0,0,0,0,0,0,0,0,0,0,0,0,0,0,0,0,0,0,0,0,0,0,0,0,0,0,0,0,0,0,0,0,0,0,0,0,0,-4.9675,-4.9677,0,-4.9901,-4.9904,-4.9906,-4.996,-4.9958,-4.9957,-4.9955,-5.0175,-5.0182,-5.0189,0,0,0,0,0,0,0,0,0,0,0,0,0,-4.9277,-4.9284,-4.9674,-4.9677,-4.968,-4.9901,-4.9904,-4.9907,-4.996,-4.9958,-4.9956,-4.9955,-5.0173,-5.0181,-5.019,0,0,0,0,0,0,0,0,0,0,0,0,0,-4.947,-4.9286,-4.9674,-4.9734,-4.9741,-4.99,-4.9904,-4.9908,-4.996,-4.9958,-4.9956,-4.9954,-5.017,-5.0181,-5.0191,-5.0303,0,0,-5.0224,-5.0229,0,0,0,0,0,0,0,0,-4.9459,-4.9485,-4.9722,-4.973,-4.9739,-4.99,-4.9844,-5.004,-4.9961,-4.9877,-4.9955,-4.9953,-5.0085,-5.0102,-5.0149,-5.0314,-5.0323,-5.0225,-5.0232,-5.0237,-5.024,0,0,0,0,0,0,0,-4.9446,-4.9475,-4.9764,-4.9725,-4.9735,-4.9745,-4.977,-4.9882,-4.999,-4.9884,-4.9888,-4.9915,-5.0089,-5.0139,-5.0155,-5.0326,-5.0225,-5.0235,-5.0242,-5.0246,-5.0592,-5.0595,0,0,0,0,0,0,-4.9424,-4.9464,-4.9757,-4.9771,-4.9591,-4.9754,-4.9782,-4.985,-4.9989,-5.0008,-4.9917,-4.9917,-5.0121,-5.0142,-5.0163,-5.0302,-5.0237,-5.0247,-5.0253,-5.059,-5.0593,-5.0596,0,0,0,0,0,0,-4.9415,-4.9449,-4.9747,-4.9619,-4.9658,-4.9764,-4.9839,-4.9856,-4.9906,-5.0014,-5.0033,-4.9949,-5.012,-5.0148,-5.0269,-5.031,-5.0252,-5.0262,-5.0587,-5.0591,-5.0595,-5.0581,0,0,0,0,0,0,-4.9403,-4.9446,-4.9492,-4.962,-4.9664,-4.9852,-4.9842,-4.9862,-4.9926,-4.9928,-5.0049,-5.0067,-5.0121,-5.0252,-5.0279,-5.0324,-5.027,-5.0583,-5.0588,-5.0593,-5.0578,-5.0584,-5.059,0,0,0,0,0,-4.9389,-4.9477,-4.9494,-4.9529,-4.9725,-4.9855,-4.988,-4.9944,-4.993,-4.9975,-5.0044,-5.0063,-5.0302,-5.0264,-5.0295,-5.0344,-5.0581,-5.0587,-5.0593,-5.0576,-5.0583,-5.0589,0,0,0,0,0,0,-4.9346,-4.9494,-4.9515,-4.9648,-4.9739,-4.9864,-4.9922,-4.9949,-5.0043,-5.004,-5.0112,-5.0139,-5.0255,-5.0312,-5.0267,-5.0459,-5.0441,-5.0453,-5.0417,-5.0425,-5.043,-5.0412,-5.0279,0,0,0,0,0,-4.9353,-4.9451,-4.9573,-4.9678,-4.9723,-4.9815,-4.9874,-4.9916,-5.0011,-5.0049,-5.0127,-5.0216,-5.0311,-5.0372,-5.0465,-5.0588,-5.0614,-5.0637,-5.0643,-5.0647,-5.0655,-5.0723,-5.0734,-5.0616,-5.0616,-5.0616,0,0,-4.9366,-4.9459,-4.9515,-4.9672,-4.9747,-4.9842,-4.9847,-4.9947,-5.0017,-5.0063,-5.0182,-5.0243,-5.0347,-5.0469,-5.0527,-5.052,-5.0694,-5.0654,-5.0657,-5.0663,-5.073,-5.0741,-5.0751,-5.062,-5.0619,-5.0619,0,0,-4.9439,-4.9521,-4.9617,-4.9694,-4.981,-4.9871,-4.9894,-5.0016,-5.0059,-5.0181,-5.0217,-5.03,-5.0463,-5.0536,-5.0593,-5.0696,-5.0715,-5.0724,-5.0751,-5.0816,-5.0826,-5.0834,-5.0868,-5.088,-5.0733,-5.0733,-5.0734,0,-4.9439,-4.9588,-4.9661,-4.9762,-4.9828,-4.9879,-4.9974,-5.0044,-5.0182,-5.0225,-5.0217,-5.0424,-5.0497,-5.0636,-5.0661,-5.0708,-5.0733,-5.0709,-5.0819,-5.0829,-5.0837,-5.087,-5.0883,-5.0734,-5.0734,-5.0734,-5.0734,0,-4.9582,-4.9684,-4.9747,-4.9885,-4.9959,-5.0056,-5.014,-5.0205,-5.0242,-5.0302,-5.0425,-5.0516,-5.0628,-5.0665,-5.07,-5.0809,-5.0801,-5.0806,-5.0788,-5.0848,-5.088,-5.0893,-5.0734,-5.0734,-5.0734,-5.0734,0,0,-4.9629,-4.981,-4.9831,-4.9894,-5.0027,-5.0105,-5.0204,-5.0319,-5.0372,-5.0466,-5.0548,-5.0687,-5.0692,-5.0758,-5.0801,-5.0859,-5.0931,-5.0856,-5.086,-5.0864,-5.1054,-5.1048,-5.1061,-5.0947,-5.095,-5.0952,-5.1045,0,-4.9716,-4.9898,-4.9968,-5.0114,-5.0208,-5.0259,-5.0345,-5.0433,-5.0493,-5.0579,-5.0644,-5.074,-5.0742,-5.0781,-5.0841,-5.091,-5.097,-5.0905,-5.102,-5.1023,-5.0989,-5.1079,-5.1072,-5.1155,-5.1058,-5.106,-5.1062,0,-4.984,-4.9941,-5.0098,-5.0221,-5.0262,-5.0338,-5.0449,-5.0532,-5.0633,-5.0672,-5.0747,-5.0788,-5.0889,-5.0869,-5.1008,-5.0962,-5.1014,-5.1055,-5.1059,-5.1069,-5.1043,-5.1087,-5.1183,-5.1194,-5.1083,-5.1081,-5.108,0,-4.9856,-5.0031,-5.0147,-5.02,-5.0346,-5.0398,-5.046,-5.056,-5.0624,-5.072,-5.0762,-5.0866,-5.0923,-5.1001,-5.1068,-5.1047,-5.12,-5.1185,-5.1232,-5.123,-5.1258,-5.1255,-5.136,-5.1297,-5.1297,-5.1297,-5.1297,0,-4.9943,-5.0036,-5.0157,-5.0227,-5.0333,-5.0411,-5.0512,-5.0577,-5.0666,-5.0748,-5.0798,-5.0873,-5.0958,-5.1044,-5.1096,-5.1202,-5.1227,-5.1259,-5.1271,-5.1253,-5.1249,-5.1285,-5.1279,-5.13,-5.13,-5.1299,-5.1298,0,-4.9977,-5.0062,-5.0192,-5.0321,-5.0356,-5.0427,-5.0536,-5.0605,-5.0669,-5.0772,-5.0801,-5.0899,-5.1002,-5.1078,-5.121,-5.1246,-5.1358,-5.1372,-5.1324,-5.133,-5.1372,-5.1365,-5.15,-5.1521,-5.1447,-5.1448,-5.1449,0,-5.0025,-5.0099,-5.0237,-5.0298,-5.0362,-5.0459,-5.0526,-5.0606,-5.0673,-5.0795,-5.0848,-5.0956,-5.1046,-5.1208,-5.1289,-5.139,-5.1405,-5.1445,-5.142,-5.1399,-5.1402,-5.1395,-5.1402,-5.1447,-5.1448,-5.1448,-5.1448,0,-5.0101,-5.014,-5.0237,-5.035,-5.043,-5.0521,-5.0612,-5.0658,-5.0753,-5.0826,-5.0935,-5.1005,-5.1142,-5.1247,-5.1357,-5.1417,-5.1447,-5.1457,-5.1472,-5.1452,-5.1421,-5.1436,-5.1331,-5.1452,-5.1452,-5.1451,-5.1451,-5.1451,-5.0141,-5.0209,-5.0318,-5.0424,-5.0503,-5.0588,-5.0659,-5.0734,-5.0827,-5.0948,-5.0989,-5.11,-5.1198,-5.135,-5.1412,-5.1498,-5.1496,-5.1519,-5.1525,-5.1528,-5.1526,-5.1411,-5.1518,-5.1518,-5.1518,-5.1518,-5.1518,0,-5.0217,-5.0291,-5.0389,-5.0517,-5.06,-5.0628,-5.0731,-5.0797,-5.0896,-5.0988,-5.1077,-5.12,-5.1303,-5.1394,-5.15,-5.1551,-5.1567,-5.1575,-5.157,-5.1583,-5.1522,-5.1497,-5.156,-5.156,-5.156,-5.156,-5.156,-5.156,-5.0266,-5.0382,-5.0434,-5.0588,-5.066,-5.0773,-5.0829,-5.0906,-5.098,-5.1118,-5.1205,-5.1265,-5.1356,-5.1469,-5.1563,-5.1587,-5.1622,-5.1627,-5.1653,-5.1593,-5.1588,-5.1583,-5.1559,-5.1634,-5.1634,-5.1707,-5.1707,-5.1708]},{"header":{"parameterUnit":"m.s-1","parameterCategory":1,"la1":30.2991,"la2":30.254,"lo1":-89.0895,"lo2":-89.0444,"dy":0.0017,"dx":0.0017,"nx":28,"ny":28,"refTime":"2024-04-11T03:00:00:Z","depth":0,"parameterNumber":3,"parameterNumberName":"V-component_of_WINDS"},"data":[0,0,0,0,0,0,0,0,0,0,0,0,0,0,0,0,0,0,0,0,0,0,0,0,0,0,0,0,0,0,0,0,0,0,0,0,0,0,0,0,0,0,0,0,0,0,0,0,0,0,0,0,0,0,0,0,0,0,4.0829,4.083,0,4.0921,4.0922,4.0923,4.0902,4.09,4.0898,4.0897,4.0987,4.0991,4.0995,0,0,0,0,0,0,0,0,0,0,0,0,0,4.0632,4.0636,4.0829,4.083,4.0831,4.092,4.0922,4.0923,4.0902,4.09,4.0898,4.0896,4.0985,4.099,4.0995,0,0,0,0,0,0,0,0,0,0,0,0,0,4.072,4.0637,4.0829,4.0832,4.0833,4.092,4.0922,4.0923,4.0903,4.09,4.0897,4.0895,4.0984,4.099,4.0996,4.1084,0,0,4.1014,4.1016,0,0,0,0,0,0,0,0,4.0715,4.0727,4.083,4.0832,4.0833,4.0897,4.0885,4.0977,4.0903,4.0876,4.0897,4.0894,4.0959,4.0967,4.0989,4.1089,4.1092,4.1014,4.1018,4.1021,4.1022,0,0,0,0,0,0,0,4.0709,4.0723,4.0865,4.0831,4.0833,4.0827,4.0837,4.0902,4.0931,4.0878,4.0877,4.0888,4.0959,4.0984,4.0991,4.1094,4.1014,4.102,4.1023,4.1026,4.127,4.1273,0,0,0,0,0,0,4.0702,4.0718,4.0862,4.0868,4.0766,4.0833,4.0844,4.0879,4.093,4.0935,4.089,4.0887,4.0975,4.0984,4.0994,4.1102,4.1021,4.1026,4.103,4.1268,4.1271,4.1274,0,0,0,0,0,0,4.0698,4.0715,4.0858,4.0793,4.081,4.0839,4.0879,4.0882,4.0907,4.0939,4.0944,4.0911,4.0973,4.0986,4.1063,4.1105,4.1029,4.1034,4.1264,4.1269,4.1273,4.1318,0,0,0,0,0,0,4.0692,4.0714,4.0749,4.0794,4.0814,4.0926,4.0882,4.0886,4.0918,4.0914,4.0959,4.0964,4.0972,4.1054,4.1068,4.1112,4.1039,4.126,4.1266,4.1271,4.1313,4.1324,4.1333,0,0,0,0,0,4.0685,4.0757,4.075,4.0768,4.0859,4.0929,4.094,4.0949,4.0921,4.0956,4.0977,4.0963,4.1098,4.1062,4.1078,4.1124,4.1258,4.1264,4.1271,4.1309,4.1322,4.1333,0,0,0,0,0,0,4.0715,4.0763,4.0756,4.0845,4.0883,4.0925,4.0969,4.0962,4.1008,4.1002,4.101,4.102,4.1098,4.1118,4.1077,4.1213,4.1174,4.1184,4.1197,4.1209,4.1219,4.1213,4.1044,0,0,0,0,0,4.0732,4.0786,4.0824,4.0899,4.0918,4.0941,4.0972,4.0975,4.1014,4.103,4.1056,4.1094,4.1145,4.1178,4.1226,4.1316,4.1325,4.1355,4.1365,4.1373,4.1382,4.1431,4.1445,4.1296,4.1296,4.1295,0,0,4.0767,4.08,4.0833,4.0906,4.0936,4.0991,4.0954,4.1014,4.1055,4.1038,4.1113,4.1134,4.1176,4.1259,4.1297,4.1279,4.1425,4.1381,4.1387,4.1392,4.1439,4.1453,4.1466,4.13,4.1299,4.1299,0,0,4.086,4.089,4.0956,4.0987,4.1033,4.1048,4.1063,4.1107,4.112,4.1196,4.1185,4.1232,4.132,4.1351,4.1378,4.1482,4.1471,4.1498,4.1549,4.1597,4.1608,4.1619,4.1657,4.167,4.1506,4.1506,4.1506,0,4.0897,4.0981,4.099,4.1051,4.1083,4.1072,4.1138,4.1168,4.1227,4.1249,4.1227,4.1337,4.1365,4.1455,4.1481,4.1503,4.1521,4.1493,4.1606,4.1617,4.1627,4.1663,4.1677,4.1509,4.1509,4.1509,4.1508,0,4.1026,4.1084,4.1131,4.1191,4.1228,4.1291,4.1308,4.1344,4.1344,4.136,4.1437,4.1469,4.1525,4.1546,4.1546,4.1637,4.1624,4.1604,4.1565,4.1644,4.1678,4.1692,4.1513,4.1512,4.1512,4.1511,0,0,4.114,4.1204,4.1221,4.1248,4.1299,4.1343,4.1405,4.1461,4.1492,4.1533,4.1585,4.1659,4.1642,4.1672,4.1675,4.1717,4.1798,4.1692,4.1693,4.1711,4.1901,4.1916,4.1932,4.1791,4.1794,4.1796,4.1898,0,4.1238,4.135,4.136,4.146,4.1514,4.1504,4.1558,4.1594,4.1611,4.1658,4.1675,4.1728,4.17,4.1719,4.176,4.178,4.1837,4.1773,4.1839,4.1841,4.183,4.195,4.1967,4.2061,4.1911,4.1913,4.1915,0,4.1368,4.1415,4.1521,4.1564,4.1587,4.1636,4.1687,4.1733,4.1773,4.1782,4.1817,4.1814,4.1877,4.1835,4.1922,4.1878,4.1905,4.1919,4.1923,4.193,4.1884,4.1961,4.2092,4.2106,4.1936,4.1934,4.1933,0,4.1442,4.1531,4.1606,4.1629,4.1681,4.1716,4.1739,4.1777,4.181,4.1854,4.1875,4.1926,4.1954,4.1992,4.2003,4.1972,4.209,4.2049,4.2099,4.2098,4.2125,4.2123,4.2262,4.2141,4.2141,4.214,4.214,0,4.1551,4.1617,4.164,4.1687,4.1759,4.1769,4.184,4.186,4.1894,4.1943,4.1937,4.1983,4.1994,4.2042,4.205,4.2121,4.2133,4.2142,4.2144,4.2143,4.2142,4.2162,4.2156,4.2144,4.2143,4.2143,4.2142,0,4.1647,4.1666,4.1747,4.179,4.1802,4.1854,4.189,4.1933,4.1949,4.2011,4.2026,4.2051,4.2107,4.2121,4.2187,4.2193,4.2277,4.2271,4.2264,4.2264,4.2313,4.2309,4.2471,4.2493,4.2356,4.2357,4.2359,0,4.1716,4.1767,4.1815,4.1849,4.1874,4.1927,4.1961,4.1971,4.2006,4.2056,4.2094,4.2149,4.2195,4.2284,4.2307,4.2357,4.2354,4.2407,4.2362,4.236,4.2356,4.2353,4.2358,4.2416,4.2418,4.2419,4.242,0,4.1838,4.1844,4.1894,4.1947,4.1988,4.203,4.207,4.2097,4.2113,4.2153,4.2211,4.2246,4.2314,4.2369,4.242,4.2442,4.2434,4.2434,4.2448,4.2449,4.2443,4.2448,4.2289,4.243,4.2429,4.2429,4.2428,4.2428,4.1923,4.1967,4.2009,4.2064,4.2096,4.2133,4.2177,4.2199,4.2248,4.2305,4.2308,4.2371,4.2409,4.2477,4.2502,4.2551,4.2534,4.2555,4.2561,4.2566,4.2571,4.2434,4.256,4.2559,4.2559,4.2559,4.2559,0,4.2045,4.2071,4.2122,4.2179,4.2223,4.2211,4.2255,4.2292,4.2348,4.2385,4.243,4.2496,4.2549,4.2576,4.2629,4.2663,4.266,4.2676,4.2674,4.268,4.2582,4.2564,4.2677,4.2677,4.2677,4.2677,4.2677,4.2677,4.2114,4.2189,4.22,4.229,4.2315,4.2378,4.2404,4.2438,4.2468,4.2543,4.2588,4.2605,4.2638,4.2693,4.2741,4.2747,4.2767,4.2786,4.279,4.2698,4.2686,4.2675,4.2659,4.279,4.279,4.2884,4.2885,4.2886]}]]